Regional Weather Roundup
Issued by NWS

Home | Current Version | Previous Version | Graphics & Text | Print | Product List | Glossary Off
Versions: 1 2 3 4 5 6 7 8 9 10 11 12 13 14 15 16 17 18 19 20 21 22 23 24 25 26 27 28 29 30 31 32 33 34 35 36 37 38 39 40 41 42 43 44 45 46 47 48 49 50

000
ASUS43 KMPX 230201
RWRMN
WEATHER ROUNDUP FOR MINNESOTA
NATIONAL WEATHER SERVICE TWIN CITIES/CHANHASSEN MN
900 PM CDT FRI SEP 22 2017


NOTE: "FAIR" INDICATES FEW OR NO CLOUDS BELOW 12,000 FEET WITH NO
SIGNIFICANT WEATHER AND/OR OBSTRUCTIONS TO VISIBILITY. N/A MEANS
CURRENT SKY AND/OR WEATHER CONDITIONS ARE NOT AVAILABLE.

MNZ060>063-068>070-230300-
   Twin Cities Metro

CITY           SKY/WX    TMP DP  RH WIND       PRES   REMARKS
TWIN CITIES    CLOUDY    86  69  56 S12       29.82R HX  90
ST PAUL        CLOUDY    82  68  62 SE14      29.82R
CRYSTAL        CLOUDY    84  65  52 S13       29.80R
BLAINE         PTCLDY    86  66  51 S14G23    29.81R
LAKEVILLE      MOCLDY    81  66  61 S12G20    29.83R
EDEN PRAIRIE   MOCLDY    85  69  58 S10       29.80R
SOUTH ST PAUL  CLOUDY    83  65  55 SE8       29.82S
LAKE ELMO      FAIR      82  68  61 S12G18    29.84S
$$
MNZ001>005-007-008-013>017-022>024-027-028-230300-
   Northwest Minnesota

CITY           SKY/WX    TMP DP  RH WIND       PRES   REMARKS
BEMIDJI        CLEAR     73  71  92 SE8       29.68F
HALLOCK          N/A     57  54  88 NW24G30   29.75R
ROSEAU         LGT RAIN  66  61  82 N12       29.70S
WARROAD        CLOUDY    66  64  94 NE14      29.69F
CROOKSTON      CLEAR     68  66  94 N9        29.65R
FOSSTON        PTCLDY    75  70  83 SE10      29.64F
DETROIT LAKES  PTCLDY    79  72  78 S9        29.69S
MOORHEAD       PTCLDY    81  64  57 SW10      29.64R
PARK RAPIDS    PTCLDY    79  73  82 S10       29.70F
MAHNOMEN       FAIR      79  72  79 S9        29.63F
$$
MNZ006-009>011-018-025>026-230300-
   North Central Minnesota

CITY           SKY/WX    TMP DP  RH WIND       PRES   REMARKS
BAUDETTE       MOCLDY    69  68  96 E8        29.69F
FLAG ISLAND    CLOUDY    66  63  88 NE6       29.71F THUNDER
INTL FALLS     CLOUDY    71  67  87 SE9       29.73F
WASKISH        PTCLDY    72  70  94 E7        29.68F
BIG FORK       CLOUDY    73  70  88 CALM      29.74F
LONGVILLE      CLOUDY    75  72  88 SE8       29.72F
GRAND RAPIDS   CLOUDY    78  73  84 S12       29.76S
CRANE LAKE     CLOUDY    70  68  94 CALM      29.79F
ORR            CLOUDY    73  66  78 CALM      29.75F
COOK           CLOUDY    72  70  94 CALM      29.78S
WALKER         FAIR      76  72  86 S8        29.70F
$$
MNZ012-019>021-037-230300-
   Northeast Minnesota

CITY           SKY/WX    TMP DP  RH WIND       PRES   REMARKS
DULUTH         CLEAR     66  65  96 SE10      29.82R
ELY            CLOUDY    72  66  83 SE5       29.81S
HIBBING        CLEAR     71  70  96 SE6       29.77S
EVELETH        CLEAR     73  67  82 SE6       29.80S
DULUTH HARBOR  CLEAR     64  61  88 NE12      29.82R
SILVER BAY     CLOUDY    64  63  94 NE6       29.83S
GRAND MARAIS     N/A     66  61  84 NE7       29.84F
$$
MNZ029>031-032-039>041-046>048-054>057-064-230300-
   West Central Minnesota

CITY           SKY/WX    TMP DP  RH WIND       PRES   REMARKS
FERGUS FALLS   CLEAR     79  70  73 S12       29.66R
MORRIS         CLOUDY    82  70  65 SW16      29.71R
ELBOW LAKE     FAIR      77  71  80 SE10      29.69S HAZE
WADENA         CLEAR     75  70  83 S7        29.71S
GLENWOOD       CLOUDY    81  70  69 S12       29.75R
APPLETON       CLOUDY    82  70  65 SW7       29.72R
BENSON         MOCLDY    82  70  65 SW10      29.73R
ORTONVILLE     MOCLDY    81  64  57 NW6       29.74R
MADISON        MOCLDY    82  70  65 W13       29.75R THUNDER
WILLMAR        FAIR      84  70  61 S7        29.76R
$$
MNZ033>034-036-042>043-049>051-058-059-230300-
   Central Minnesota

CITY           SKY/WX    TMP DP  RH WIND       PRES   REMARKS
ST CLOUD       MOCLDY    82  71  69 S13       29.77R
SAUK CENTRE    FAIR      77  71  82 S8        29.75S
PAYNESVILLE    MOCLDY    84  70  61 S8G20     29.77R
AITKIN         CLOUDY    81  70  69 S12G21    29.74S
PINE RIVER     CLEAR     72  68  88 S5        29.77S
BRAINERD       CLEAR     80  70  71 S12       29.74S
STAPLES        CLEAR     79  70  73 S10       29.72S
LITTLE FALLS   MOCLDY    79  64  61 SE8       29.76R
LITCHFIELD     MOCLDY    84  70  61 S6        29.78R
BUFFALO        MOCLDY    83  65  54 SE13G20   29.79S
MAPLE LAKE     CLOUDY    83  70  64 S7        29.80R
HUTCHINSON     CLOUDY    84  70  63 S5        29.80R
$$
MNZ037-044-045-052-053-230300-
   East Central Minnesota

CITY           SKY/WX    TMP DP  RH WIND       PRES   REMARKS
PRINCETON      CLOUDY    86  68  54 SE12G22   29.78S
MORA           PTCLDY    79  64  61 S9        29.80F
RUSH CITY      CLEAR     81  67  63 S7        29.81R
MOOSE LAKE     CLEAR     79  68  69 S6        29.77S
HINCKLEY       FAIR      81  70  69 S8        29.80S
CLOQUET        CLEAR     68  63  83 SE5       29.81S
MCGREGOR       PTCLDY    79  70  73 S12       29.77S
$$
MNZ071>073-080-081-089-090-097-098-230300-
   Southwest Minnesota

CITY           SKY/WX    TMP DP  RH WIND       PRES   REMARKS
MONTEVIDEO     CLOUDY    84  70  61 SW13G18   29.72R
GRANITE FALLS  MOCLDY    85  71  61 SE14G22   29.75R HX  90
CANBY          MOCLDY    79  69  70 CALM      29.74S
MARSHALL       MOCLDY    82  70  66 S12       29.76R
REDWOOD FALLS  MOCLDY    84  67  56 S14       29.77R
OLIVIA         CLOUDY    82  68  61 S9        29.77R
PIPESTONE      MOCLDY    82  68  61 S15G21    29.79R
WORTHINGTON    MOCLDY    81  68  64 S18G26    29.81R
JACKSON        PTCLDY    81  64  57 S14G23    29.84S
TRACY          MOCLDY    83  70  63 S13       29.78R
SLAYTON        MOCLDY    82  64  54 S13G20    29.80R
$$
MNZ065>067-074>077-082>085-091>093-230300-
   South Central Minnesota

CITY           SKY/WX    TMP DP  RH WIND       PRES   REMARKS
MANKATO        MOCLDY    82  69  64 S12G21    29.83R
NEW ULM        CLOUDY    82  63  51 S12       29.80R
ST JAMES       PTCLDY    84  64  51 SE18G26   29.82S
FAIRMONT       CLEAR     78  67  68 S13       29.85R
FARIBAULT      MOCLDY    82  68  61 S15G23    29.86R
OWATONNA       PTCLDY    82  68  61 S21G28    29.87R
WASECA         CLOUDY    79  64  61 S14G21    29.87R
ALBERT LEA     CLEAR     84  70  61 S12G21    29.89R
$$
MNZ078>079-086>088-094>096-230300-
   Southeast Minnesota

CITY           SKY/WX    TMP DP  RH WIND       PRES   REMARKS
ROCHESTER      CLEAR     79  67  66 S16G23    29.91S
RED WING       CLEAR     84  61  45 SE12      29.85R
STANTON        CLOUDY    82  67  58 S13G18    29.83S
DODGE CENTER   CLEAR     81  64  57 S15       29.90S
WINONA         CLEAR     82  63  51 S6        29.91R
AUSTIN         CLEAR     81  66  61 S8        29.91R
PRESTON        CLEAR     78  64  61 S12       29.95R
$$
ABBREVIATIONS USED IN REMARKS
   TC - TEMPERATURES IN CELSIUS
  WCI - WIND CHILL INDEX
   HX - HEAT INDEX
  VSB - VISIBILITY
$$




USA.gov is the U.S. government's official web portal to all federal, state and local government web resources and services.